Regional Weather Roundup
Issued by NWS

Home | Current Version | Previous Version | Graphics & Text | Print | Product List | Glossary On
Versions: 1 2 3 4 5 6 7 8 9 10 11 12 13 14 15 16 17 18 19 20 21 22 23 24 25 26 27 28 29 30 31 32 33 34 35 36 37 38 39 40 41 42 43 44 45 46 47 48 49 50
000
ASUS43 KLMK 101802
RWRKY
KENTUCKY REGIONAL WEATHER ROUNDUP
NATIONAL WEATHER SERVICE LOUISVILLE KY
200 PM EDT THU JUL 10 2014

NOTE "FAIR" INDICATES FEW OR NO CLOUDS BELOW 12,000 FEET
WITH NO SIGNIFICANT WEATHER AND/OR OBSTRUCTIONS TO VISIBILITY.

KYZ001>023-026-027-061>063-070>075-101900-
WESTERN AND SOUTH CENTRAL KENTUCKY

CITY           SKY/WX    TMP DP  RH WIND       PRES   REMARKS
PADUCAH        PTSUNNY   85  66  53 VRB6      30.11F
HENDERSON      MOSUNNY   82  61  47 N6        30.11F
OWENSBORO      MOSUNNY   83  62  48 VRB5      30.12F
HOPKINSVILLE   PTSUNNY   85  61  43 SW3       30.10F
BOWLING GREEN  MOSUNNY   85  61  44 VRB5      30.11S
GLASGOW        NOT AVBL
$$

KYZ024-025-028>034-038-045-046-053-101900-
NORTH CENTRAL KENTUCKY

CITY           SKY/WX    TMP DP  RH WIND       PRES   REMARKS
LOUISVILLE/SDF MOSUNNY   86  57  37 W7        30.11F
LOUISVILLE/LOU SUNNY     85  57  38 VRB6      30.12F
FORT KNOX      MOSUNNY   81  63  54 VRB6      30.11F
$$

KYZ035>037-039>044-047>052-055>060-089>105-101900-
NORTHEAST KENTUCKY

CITY           SKY/WX    TMP DP  RH WIND       PRES   REMARKS
LEXINGTON      MOSUNNY   85  60  42 NW9       30.12F
COVINGTON      MOSUNNY   80  53  39 VRB5      30.14S
FRANKFORT      MOSUNNY   82  60  47 N8        30.11F
$$

KYZ054-064>069-076>088-106>120-101900-
SOUTHEAST KENTUCKY

CITY           SKY/WX    TMP DP  RH WIND       PRES   REMARKS
JACKSON        PTSUNNY   84  59  42 CALM      30.13F
LONDON         PTSUNNY   83  56  39 E3        30.12F
SOMERSET       MOSUNNY   84  54  34 CALM      30.12F
MIDDLESBORO    MOSUNNY   82  63  51 CALM      30.12F
MONTICELLO     CLEAR     87  56  34 CALM      30.13F
$$



USA.gov is the U.S. government's official web portal to all federal, state and local government web resources and services.